TimeCDT,TemperatureF,Dew PointF,Humidity,Sea Level PressureIn,VisibilityMPH,Wind Direction,Wind SpeedMPH,Gust SpeedMPH,PrecipitationIn,Events,Conditions,WindDirDegrees,DateUTC
12:53 AM,36.0,32.0,86,30.32,10.0,Calm,Calm,-,N/A,,Clear,0,2013-03-28 05:53:00
1:53 AM,35.1,30.9,85,30.32,10.0,Calm,Calm,-,N/A,,Clear,0,2013-03-28 06:53:00
2:53 AM,34.0,30.9,89,30.32,9.0,Calm,Calm,-,N/A,,Clear,0,2013-03-28 07:53:00
3:53 AM,33.1,28.9,85,30.32,9.0,Calm,Calm,-,N/A,,Clear,0,2013-03-28 08:53:00
4:53 AM,32.0,28.9,88,30.33,9.0,Calm,Calm,-,N/A,,Clear,0,2013-03-28 09:53:00
5:53 AM,32.0,28.0,85,30.35,8.0,Calm,Calm,-,N/A,,Clear,0,2013-03-28 10:53:00
6:53 AM,32.0,28.9,88,30.36,7.0,Calm,Calm,-,N/A,,Clear,0,2013-03-28 11:53:00
7:53 AM,37.9,35.1,89,30.37,10.0,Calm,Calm,-,N/A,,Clear,0,2013-03-28 12:53:00
8:53 AM,48.9,35.1,59,30.38,10.0,NE,3.5,-,N/A,,Clear,40,2013-03-28 13:53:00
9:53 AM,57.0,32.0,39,30.38,10.0,Variable,3.5,-,N/A,,Clear,0,2013-03-28 14:53:00
10:53 AM,62.1,28.9,29,30.38,10.0,North,3.5,-,N/A,,Clear,360,2013-03-28 15:53:00
11:53 AM,64.0,28.0,26,30.36,10.0,Variable,5.8,-,N/A,,Unknown,0,2013-03-28 16:53:00
12:53 PM,66.0,28.9,25,30.34,10.0,Calm,Calm,-,N/A,,Clear,0,2013-03-28 17:53:00
1:53 PM,68.0,28.9,23,30.31,10.0,Variable,4.6,-,N/A,,Clear,0,2013-03-28 18:53:00
2:53 PM,70.0,28.0,21,30.28,10.0,North,4.6,-,N/A,,Clear,360,2013-03-28 19:53:00
3:53 PM,71.1,28.9,21,30.25,10.0,NW,5.8,-,N/A,,Clear,320,2013-03-28 20:53:00
4:53 PM,71.1,24.1,17,30.25,10.0,Calm,Calm,-,N/A,,Clear,0,2013-03-28 21:53:00
5:53 PM,70.0,25.0,18,30.25,10.0,West,3.5,-,N/A,,Clear,260,2013-03-28 22:53:00
6:53 PM,66.0,26.1,22,30.26,10.0,Calm,Calm,-,N/A,,Clear,0,2013-03-28 23:53:00
7:53 PM,55.0,39.0,55,30.28,10.0,Calm,Calm,-,N/A,,Clear,0,2013-03-29 00:53:00
8:53 PM,50.0,39.9,68,30.29,10.0,Calm,Calm,-,N/A,,Clear,0,2013-03-29 01:53:00
9:53 PM,46.9,39.0,74,30.31,10.0,South,9.2,-,N/A,,Clear,180,2013-03-29 02:53:00
10:53 PM,50.0,36.0,59,30.32,10.0,West,3.5,-,N/A,,Clear,270,2013-03-29 03:53:00
11:53 PM,52.0,35.1,53,30.32,10.0,Calm,Calm,-,N/A,,Clear,0,2013-03-29 04:53:00